Lid_Strength_Index
9 12 13 11 11 10 11 12 12 10 9 10 12 11 10 9 10 10 9 9 8 7 6 5 4 4 4 3 2 3 4 3 5 5 2 2 2 2 1 1 1 2 2 1
11 13 10 9 9 10 11 12 12 11 9 10 11 11 10 9 10 9 9 8 8 8 7 6 5 4 4 6 5 6 4 3 2 3 4 2 2 2 1 1 0 1 1 1
12 10 8 9 9 10 11 12 12 11 9 10 11 13 11 9 8 8 8 8 7 7 7 6 5 5 4 4 3 3 3 3 2 2 2 2 2 2 2 3 2 1 -0 0
11 8 9 9 10 9 12 9 10 10 12 15 11 17 13 11 10 9 8 8 8 7 6 6 5 4 3 4 3 3 2 2 3 2 3 3 3 4 3 2 1 2 1 0
11 10 10 10 10 9 11 9 10 10 13 15 13 16 14 11 11 10 9 7 7 7 7 6 6 5 4 4 4 4 4 3 3 2 3 3 3 3 3 2 3 2 1 0
9 7 8 9 8 8 8 10 11 13 14 17 14 15 15 12 11 10 9 7 7 8 6 6 6 5 4 4 4 4 4 3 3 2 2 2 3 3 3 3 3 2 3 1
10 10 9 7 10 8 10 14 17 18 18 18 12 14 14 10 8 8 8 8 8 8 8 7 7 7 6 6 5 5 5 4 4 4 3 4 4 2 3 3 2 3 3 3
15 14 9 7 9 12 11 13 17 20 19 17 12 16 12 8 7 6 6 8 7 8 8 8 8 7 6 6 6 5 5 5 5 4 4 4 3 3 3 3 2 2 2 2
15 13 9 8 8 9 11 14 11 15 16 18 16 13 10 9 8 7 7 7 8 8 8 8 7 7 7 6 6 6 6 6 5 5 5 4 4 4 4 3 3 3 2 1
11 15 10 9 9 9 11 9 16 16 21 22 18 16 14 11 10 8 8 8 8 8 8 7 7 7 8 8 8 7 6 6 5 5 5 5 4 5 4 4 3 3 3 2
10 13 13 10 12 13 12 13 13 13 16 20 21 17 11 11 9 9 8 7 7 7 7 8 7 7 8 7 7 7 7 6 5 5 5 5 4 5 4 5 4 3 2 2
10 12 16 14 9 8 10 13 13 17 18 16 17 17 9 9 8 8 8 7 6 6 6 6 7 7 6 6 7 8 8 6 6 5 5 5 5 4 5 4 3 3 3 3
10 13 17 15 13 10 12 12 12 13 14 17 19 17 8 8 9 7 7 7 6 6 6 6 7 7 8 8 8 7 7 7 7 6 6 6 6 5 3 4 4 3 3 4
8 12 14 17 15 12 14 12 11 13 17 16 16 14 11 9 8 8 7 7 7 7 7 7 8 8 7 6 7 7 7 7 6 6 6 6 6 6 5 4 3 3 3 2
11 15 13 12 11 11 12 12 11 13 13 16 13 13 10 9 9 8 7 8 8 8 8 8 8 8 8 7 7 7 7 6 6 6 6 6 5 5 5 5 5 4 3 2
11 15 13 14 11 11 13 11 11 11 11 11 11 12 8 7 8 8 9 8 8 8 8 7 7 7 7 7 7 6 7 6 6 6 6 6 6 6 6 6 6 6 5 4
12 13 15 17 12 13 16 12 11 11 11 12 15 13 9 9 8 9 9 8 8 8 7 7 7 7 8 8 7 8 7 6 6 6 6 6 6 7 7 6 6 6 7 6
12 13 13 16 14 21 12 8 9 11 11 10 10 9 8 8 7 7 8 10 9 8 8 8 8 8 8 8 7 7 7 7 7 7 7 7 7 7 7 7 7 7 7 7
9 11 15 17 18 14 11 11 11 12 13 9 10 8 8 8 9 9 7 8 9 9 9 9 8 8 7 8 8 8 8 8 9 9 9 9 8 9 9 8 7 6 7 7
9 9 13 15 18 20 14 9 7 9 15 8 8 9 9 9 13 11 8 8 8 8 8 7 8 8 8 8 8 9 9 9 10 10 10 10 10 10 9 8 6 6 7 6
14 14 15 16 17 15 9 8 7 16 14 8 7 9 10 11 10 9 8 8 8 7 8 8 9 9 10 10 10 10 10 11 11 10 10 11 10 11 10 9 8 5 6 6
14 15 16 15 17 18 7 8 12 10 8 7 8 9 9 9 9 9 8 8 7 8 9 9 10 10 9 9 10 11 12 12 11 11 12 12 11 10 10 9 8 6 6 6
15 12 14 13 14 8 7 8 7 7 8 8 9 8 9 10 9 9 8 8 9 9 10 10 10 10 11 11 11 13 12 12 13 13 13 13 12 12 11 11 9 7 7 7
10 8 12 11 9 8 7 7 7 7 7 6 8 9 9 9 9 8 8 10 9 10 10 11 11 12 12 12 13 13 13 14 14 14 14 13 13 13 12 11 11 10 9 9
10 9 11 11 9 8 7 7 7 6 6 7 7 8 8 8 8 9 9 10 10 11 11 12 13 13 14 14 14 14 14 15 15 15 14 14 14 13 13 12 12 11 9 8
10 11 13 13 9 9 9 7 6 7 6 6 8 8 7 8 9 9 10 10 11 12 13 14 14 14 15 15 16 15 15 15 16 16 15 14 14 13 13 12 12 11 11 11